Tracking 18957 objects as of 22-Jan-2018
HD Live streaming from Space Station
objects crossing your sky now

FENGYUN 1C DEB

Track FENGYUN 1C DEB now!
10-day predictions


NORAD ID: 32163
Int'l Code: 1999-025CTH
Perigee: 752.4 km
Apogee: 842.2 km
Inclination: 99.5 °
Period: 100.7 minutes
Semi major axis: 7168 km
RCS: 0.0079 m2 (small)
Launch date: May 10, 1999
Source: People's Republic of China (PRC)
Launch site: Taiyaun Space Center, China (TSC)

Note: This is SATELLITE DEBRIS
aabbcc
Your satellite tracking list
Your tracking list is empty




NASA's NSSDC Master Catalog

Two Line Element Set (TLE):
1 32163U 99025CTH 17359.33898071  .00000477  00000-0  19883-3 0  9994
2 32163  99.5449  33.2312 0062649 109.8403 250.9544 14.30469642542316
Source of the keplerian elements: AFSPC